Effective Sunday, March 17, 2024, the National Weather Service National Data Buoy Center will discontinue its Dial-A-Buoy Interactive Voice Response system. For more information, see Service Change Notice 24-06 (PDF).

Station SJSN4 - 8537121 - Ship John Shoal, NJ Image indicating link to RSS feed of recent meteorological observations for station SJSN4


Conditions at SJSN4 as of
(9:18 am EST)
1418 GMT on 02/26/2024:
     

Click on the graph icon in the table below to see a time series plot of the last five days of that observation.

5-day plot - Wind Direction Wind Direction (WDIR): SE ( 130 deg true )
5-day plot - Wind Speed Wind Speed (WSPD): 6.0 kts
5-day plot - Wind Gust Wind Gust (GST): 7.0 kts
5-day plot - Atmospheric Pressure Atmospheric Pressure (PRES):30.07 in
5-day plot - Air Temperature Air Temperature (ATMP): 41.4 °F
5-day plot - Wind Chill Wind Chill (CHILL): 36.9 °F
5-day plot - Wind Speed at 10 Meters Wind Speed at 10 meters (WSPD10M): 5.8 kts
5-day plot - Wind Speed at 20 Meters Wind Speed at 20 meters (WSPD20M): 5.8 kts
5-day plot -  Wind Speed, Wind Gust and Atmospheric Pressure Combined plot of Wind Speed, Gust, and Air Pressure
NOS Water Level Observation Network Water Level
Previous observations
TIME
(EST)
5-day plot - Wind Direction
WDIR
 
5-day plot - Wind Speed
WSPD
kts
5-day plot - Wind Gust
GST
kts
5-day plot - Wave Height
WVHT
ft
5-day plot - Dominant Wave Period
DPD
sec
5-day plot - Average Wave Period
APD
sec
5-day plot - Mean Wave Direction
MWD
 
5-day plot - Atmospheric Pressure
PRES
in
5-day plot - Pressure Tendency
PTDY
in
5-day plot - Air Temperature
ATMP
°F
5-day plot - Water Temperature
WTMP
°F
5-day plot - Dew Point
DEWP
°F
5-day plot - Salinity
SAL
psu
5-day plot - Visibility
VIS
nmi
5-day plot - Tide (above MLLW)
TIDE
ft
2024-02-26 09:12 am SE 5.1 6.0----30.07- 41.9-----
2024-02-26 09:06 am SE 6.0 7.0----30.07- 42.4-----
2024-02-26 09:00 amSSE 6.0 6.0----30.07+0.02 42.1-----
2024-02-26 08:54 amSSE 6.0 7.0----30.07- 41.5-----
2024-02-26 08:48 am S 6.0 7.0----30.07- 41.4-----
2024-02-26 08:42 amSSE 7.0 7.0----30.07- 41.2-----
2024-02-26 08:36 am S 7.0 8.0----30.07- 41.0-----
2024-02-26 08:30 amSSE 8.0 8.0----30.07- 41.0-----
2024-02-26 08:24 amSSE 8.0 8.0----30.07- 40.8-----
2024-02-26 08:18 amSSE 8.0 8.0----30.07- 40.6-----
2024-02-26 08:12 amSSE 7.0 7.0----30.07- 40.6-----
2024-02-26 08:06 am S 7.0 8.0----30.07- 40.6-----
2024-02-26 08:00 amSSE 6.0 7.0----30.07+0.01 40.5-----
2024-02-26 07:54 am S 6.0 7.0----30.07- 40.5-----
2024-02-26 07:48 amSSE 7.0 8.0----30.07- 40.1-----
2024-02-26 07:42 amSSE 7.0 8.9----30.07- 40.1-----
2024-02-26 07:36 am S 8.0 8.9----30.07- 39.9-----
2024-02-26 07:30 am S 8.0 8.9----30.06- 39.7-----
2024-02-26 07:24 am S 8.0 8.0----30.06- 39.7-----
2024-02-26 07:18 am S 7.0 8.9----30.06- 39.6-----
2024-02-26 07:12 am S 8.0 8.9----30.06- 39.4-----
2024-02-26 07:06 amSSE 7.0 8.0----30.06- 39.2-----
2024-02-26 07:00 amSSE 7.0 8.0----30.06-0.01 39.0-----
2024-02-26 06:54 amSSE 7.0 8.9----30.06- 38.8-----
2024-02-26 06:48 am S 8.0 9.9----30.05- 38.8-----
2024-02-26 06:42 am S 8.0 8.9----30.05- 38.7-----
2024-02-26 06:36 am S 8.0 8.9----30.05- 38.7-----
2024-02-26 06:30 amSSE 7.0 8.9----30.05- 38.7-----
2024-02-26 06:24 am S 8.0 8.9----30.05- 38.5-----
2024-02-26 06:18 am S 8.0 9.9----30.05- 38.3-----
2024-02-26 06:12 am S 8.9 11.1----30.05- 38.3-----
2024-02-26 06:06 amSSE 9.9 12.0----30.05- 37.9-----
2024-02-26 06:00 am S 8.9 12.0----30.05-0.03 37.9-----
2024-02-26 05:54 am S 9.9 13.0----30.06- 37.9-----
2024-02-26 05:48 am S 11.1 12.0----30.05- 37.8-----
2024-02-26 05:42 am S 8.9 11.1----30.06- 37.6-----
2024-02-26 05:36 am S 11.1 13.0----30.06- 37.6-----
2024-02-26 05:30 am S 12.0 14.0----30.05- 37.6-----
2024-02-26 05:24 am S 13.0 15.0----30.05- 37.4-----
2024-02-26 05:18 am S 13.0 14.0----30.06- 37.4-----
2024-02-26 05:12 am S 12.0 14.0----30.05- 37.4-----
2024-02-26 05:06 am S 11.1 13.0----30.06- 37.4-----
2024-02-26 05:00 am S 12.0 13.0----30.06-0.03 37.2-----
2024-02-26 04:54 am S 12.0 14.0----30.06- 37.2-----
2024-02-26 04:48 am S 12.0 13.0----30.06- 37.2-----
2024-02-26 04:42 am S 12.0 14.0----30.06- 37.2-----
2024-02-26 04:36 am S 12.0 14.0----30.06- 37.2-----
2024-02-26 04:30 am S 13.0 14.0----30.06- 37.2-----
2024-02-26 04:24 am S 11.1 14.0----30.06- 37.2-----
2024-02-26 04:18 am S 13.0 15.0----30.06- 37.2-----
2024-02-26 04:12 am S 12.0 15.9----30.07- 37.4-----
2024-02-26 04:06 am S 14.0 15.9----30.07- 37.2-----
2024-02-26 04:00 am S 13.0 15.0----30.07-0.02 37.4-----
2024-02-26 03:54 am S 13.0 15.0----30.07- 37.2-----
2024-02-26 03:48 am S 14.0 15.9----30.07- 36.9-----
2024-02-26 03:42 am S 14.0 15.9----30.08- 37.0-----
2024-02-26 03:36 am S 13.0 15.0----30.08- 37.2-----
2024-02-26 03:30 am S 11.1 15.0----30.09- 37.4-----
2024-02-26 03:24 am S 13.0 15.0----30.09- 37.0-----
2024-02-26 03:18 am S 13.0 17.1----30.08- 36.9-----
2024-02-26 03:12 am S 14.0 17.1----30.08- 37.0-----
2024-02-26 03:06 am S 14.0 15.9----30.08- 37.0-----
2024-02-26 03:00 am S 13.0 15.9----30.08-0.02 36.9-----
2024-02-26 02:54 am S 13.0 15.0----30.09- 36.7-----
2024-02-26 02:48 am S 12.0 15.9----30.08- 36.5-----
2024-02-26 02:42 am S 14.0 15.0----30.09- 36.5-----
2024-02-26 02:36 am S 14.0 15.9----30.09- 36.5-----
2024-02-26 02:30 am S 14.0 15.9----30.09- 36.5-----
2024-02-26 02:24 am S 15.9 17.1----30.09- 36.3-----
2024-02-26 02:18 am S 14.0 17.1----30.09- 36.5-----
2024-02-26 02:12 am S 15.0 18.1----30.09- 36.7-----
2024-02-26 02:06 am S 15.9 18.1----30.09- 36.7-----
2024-02-26 02:00 am S 15.0 18.1----30.09-0.03 36.7-----
2024-02-26 01:54 am S 17.1 20.0----30.09- 36.7-----
2024-02-26 01:48 am S 15.9 18.1----30.09- 36.7-----
2024-02-26 01:42 am S 17.1 19.0----30.09- 36.3-----
2024-02-26 01:36 am S 15.9 19.0----30.09- 36.3-----
2024-02-26 01:30 am S 17.1 18.1----30.09- 36.3-----
2024-02-26 01:24 am S 17.1 19.0----30.09- 36.0-----
2024-02-26 01:18 am S 15.9 18.1----30.09- 36.0-----
2024-02-26 01:12 am S 17.1 19.0----30.09- 35.8-----
2024-02-26 01:06 am S 15.9 19.0----30.09- 35.8-----
2024-02-26 01:00 am S 17.1 20.0----30.09-0.04 35.8-----
2024-02-26 12:54 am S 17.1 20.0----30.10- 36.0-----
2024-02-26 12:48 am S 19.0 22.0----30.10- 36.1-----
2024-02-26 12:42 am S 19.0 22.0----30.10- 36.1-----
2024-02-26 12:36 am S 18.1 22.0----30.09- 36.1-----
2024-02-26 12:30 am S 19.0 21.0----30.09- 36.0-----
2024-02-26 12:24 am S 18.1 21.0----30.09- 35.8-----
2024-02-26 12:18 am S 18.1 21.0----30.09- 36.0-----
2024-02-26 12:12 am S 18.1 21.0----30.10- 36.0-----
2024-02-26 12:06 am S 19.0 21.0----30.10- 36.1-----
2024-02-26 12:00 am S 19.0 20.0----30.10-0.03 36.1-----
2024-02-25 11:54 pm S 17.1 19.0----30.10- 36.5-----
2024-02-25 11:48 pm S 17.1 19.0----30.11- 36.7-----
2024-02-25 11:42 pm S 17.1 19.0----30.11- 36.5-----
2024-02-25 11:36 pm S 17.1 19.0----30.11- 36.5-----
2024-02-25 11:30 pm S 17.1 19.0----30.11- 36.3-----
2024-02-25 11:24 pm S 17.1 19.0----30.11- 36.3-----
2024-02-25 11:18 pm S 15.9 19.0----30.11- 36.3-----
2024-02-25 11:12 pm S 18.1 20.0----30.12- 36.1-----
2024-02-25 11:06 pm S 18.1 19.0----30.11- 36.1-----
2024-02-25 11:00 pm S 17.1 19.0----30.11-0.01 36.1-----
2024-02-25 10:54 pm S 17.1 19.0----30.11- 36.0-----
2024-02-25 10:48 pm S 17.1 19.0----30.12- 36.0-----
2024-02-25 10:42 pm S 15.9 19.0----30.12- 36.1-----
2024-02-25 10:36 pm S 18.1 20.0----30.12- 36.1-----
2024-02-25 10:30 pm S 18.1 20.0----30.12- 36.7-----
2024-02-25 10:24 pm S 17.1 19.0----30.13- 36.7-----
2024-02-25 10:18 pm S 15.9 19.0----30.13- 36.9-----
2024-02-25 10:12 pm S 15.9 18.1----30.13- 36.7-----
2024-02-25 10:06 pm S 15.9 18.1----30.13- 36.5-----
2024-02-25 10:00 pm S 15.9 19.0----30.13- 36.5-----
2024-02-25 09:54 pm S 17.1 19.0----30.13- 36.5-----
2024-02-25 09:48 pm S 18.1 19.0----30.13- 36.3-----
2024-02-25 09:42 pm S 17.1 19.0----30.13- 36.5-----
2024-02-25 09:36 pm S 15.9 18.1----30.13- 36.7-----
2024-02-25 09:30 pm S 17.1 19.0----30.13- 36.3-----
2024-02-25 09:24 pm S 17.1 19.0----30.14- 36.3-----
2024-02-25 09:18 pm S 15.9 18.1----30.14- 36.7-----
2024-02-25 09:12 pm S 17.1 19.0----30.14- 36.7-----
2024-02-25 09:06 pm S 17.1 19.0----30.14- 36.7-----
2024-02-25 09:00 pm S 15.9 18.1----30.13+0.01 36.9-----
2024-02-25 08:54 pm S 17.1 19.0----30.13- 37.0-----
2024-02-25 08:48 pm S 17.1 19.0----30.13- 36.9-----
2024-02-25 08:42 pm S 15.9 19.0----30.13- 37.2-----
2024-02-25 08:36 pm S 17.1 19.0----30.12- 37.0-----
2024-02-25 08:30 pm S 18.1 20.0----30.12- 37.0-----
2024-02-25 08:24 pm S 17.1 19.0----30.13- 37.2-----
2024-02-25 08:18 pm S 17.1 20.0----30.13- 37.2-----
2024-02-25 08:12 pm S 18.1 19.0----30.13- 37.2-----
2024-02-25 08:06 pm S 17.1 20.0----30.13- 37.4-----
2024-02-25 08:00 pm S 18.1 19.0----30.13+0.00------
2024-02-25 07:54 pm S 17.1 19.0----30.12-------
2024-02-25 07:48 pm S 19.0 20.0----30.13- 37.8-----
2024-02-25 07:42 pm S 17.1 19.0----30.13- 38.1-----
2024-02-25 07:36 pm S 17.1 19.0----30.13- 38.1-----
2024-02-25 07:30 pmSSE 18.1 19.0----30.13- 38.1-----
2024-02-25 07:24 pmSSE 17.1 19.0----30.13- 37.9-----
2024-02-25 07:18 pmSSE 17.1 19.0----30.13-------
2024-02-25 07:12 pm S 18.1 19.0----30.13-------
2024-02-25 07:06 pm S 17.1 19.0----30.12-------
2024-02-25 07:00 pmSSE 15.0 19.0------------
2024-02-25 06:54 pmSSE 17.1 18.1------------
2024-02-25 06:48 pmSSE 15.9 18.1----30.12- 38.5-----
2024-02-25 06:42 pmSSE 15.9 17.1----30.12- 38.1-----
2024-02-25 06:36 pmSSE 14.0 15.9----30.12- 38.3-----
2024-02-25 06:30 pmSSE 14.0 15.9----30.12- 38.1-----
2024-02-25 06:24 pmSSE 14.0 15.0----30.12- 38.1-----
2024-02-25 06:00 pmSSE 12.0 13.0----30.12- 37.9-----
2024-02-25 05:54 pmSSE 11.1 12.0----30.12- 37.9-----
2024-02-25 05:48 pm SE 11.1 13.0----30.11- 37.9-----
2024-02-25 05:42 pm SE 11.1 12.0----30.11- 37.8-----
2024-02-25 05:36 pm SE 9.9 11.1----30.12- 37.8-----
2024-02-25 05:30 pm SE 9.9 11.1----30.12- 37.8-----
2024-02-25 05:24 pm SE 8.9 11.1----30.12- 37.9-----
2024-02-25 05:18 pm SE 9.9 9.9----30.12- 37.8-----
2024-02-25 05:12 pm SE 8.9 9.9----30.12- 37.8-----
2024-02-25 05:06 pm SE 8.9 9.9----30.12- 37.8-----
2024-02-25 05:00 pm SE 8.0 9.9----30.12-0.03 37.8-----
2024-02-25 04:54 pmESE 8.9 9.9----30.12- 37.8-----
2024-02-25 04:48 pmESE 7.0 8.0----30.12-------
2024-02-25 04:42 pm SE 8.0 8.9----30.12-------
2024-02-25 04:36 pm SE 8.0 8.9----30.12-------
2024-02-25 04:30 pm-------30.13-------
2024-02-25 04:24 pm-------30.13-------
2024-02-25 04:18 pmESE 7.0 8.9----30.13- 37.9-----
2024-02-25 04:12 pmESE 8.0 8.9----30.13- 37.9-----
2024-02-25 04:06 pmESE 8.0 8.9----30.13- 37.8-----
2024-02-25 04:00 pmESE 8.0 8.9----30.13-0.05------
2024-02-25 03:54 pmESE 8.0 8.9----30.13-------
2024-02-25 03:48 pmESE 7.0 8.0----30.13- 37.4-----
2024-02-25 03:42 pmESE 7.0 8.0----30.13- 37.0-----
2024-02-25 03:36 pm SE 6.0 7.0----30.14- 37.0-----
2024-02-25 03:30 pm SE 6.0 7.0----30.14- 36.9-----
2024-02-25 03:24 pmESE 6.0 7.0----30.14- 36.7-----
2024-02-25 03:18 pm SE 7.0 8.0----30.14-------
2024-02-25 03:12 pmESE 6.0 7.0----30.14-------
2024-02-25 03:06 pmESE 7.0 8.0----30.14-------
2024-02-25 03:00 pmESE 6.0 7.0------------
2024-02-25 02:54 pm E 5.1 7.0------------
2024-02-25 02:48 pmESE 5.1 6.0----30.15- 36.3-----
2024-02-25 02:42 pm E 2.9 4.1----30.15- 36.0-----
2024-02-25 02:36 pmENE 2.9 4.1----30.15- 35.8-----
2024-02-25 02:30 pm E 2.9 4.1----30.15- 35.6-----
2024-02-25 02:24 pm E 1.9 4.1----30.15- 35.6-----
2024-02-25 02:18 pmENE 1.9 2.9----30.15- 35.6-----
2024-02-25 02:12 pmENE 1.9 4.1----30.15- 35.2-----
2024-02-25 02:06 pm E 1.9 4.1----30.16- 35.1-----
2024-02-25 02:00 pm NE 2.9 4.1----30.16-0.06 34.7-----
2024-02-25 01:54 pmNNE 1.9 4.1----30.16- 34.5-----
2024-02-25 01:48 pm N 4.1 5.1----30.16- 34.2-----
2024-02-25 01:42 pmNNW 5.1 5.1----30.16- 34.2-----
2024-02-25 01:36 pm N 2.9 5.1----30.16- 34.2-----
2024-02-25 01:30 pmNNE 4.1 5.1----30.16-------
2024-02-25 01:24 pmNNE 4.1 5.1----30.17-------
2024-02-25 01:18 pm N 4.1 5.1----30.17- 33.4-----
2024-02-25 01:12 pmNNW 4.1 4.1----30.17- 33.3-----
2024-02-25 01:06 pm NW 4.1 5.1----30.18- 32.9-----
2024-02-25 01:00 pmWNW 4.1 5.1----30.18-0.05 32.9-----
2024-02-25 12:54 pm W 2.9 5.1----30.18- 32.5-----
2024-02-25 12:48 pm W 5.1 6.0----30.18- 32.4-----
2024-02-25 12:42 pm W 5.1 5.1----30.18- 32.2-----
2024-02-25 12:36 pmWNW 4.1 5.1----30.18- 32.0-----
2024-02-25 12:30 pm W 5.1 6.0----30.19- 31.6-----
2024-02-25 12:24 pm W 5.1 6.0----30.19- 31.6-----
2024-02-25 12:18 pm W 5.1 6.0----30.19- 31.3-----
2024-02-25 12:12 pm W 5.1 5.1----30.19- 31.3-----
2024-02-25 12:06 pm W 4.1 5.1----30.19- 31.1-----
2024-02-25 12:00 pm W 5.1 5.1----30.20-0.03 31.3-----
2024-02-25 11:54 am W 4.1 6.0----30.20- 30.7-----
2024-02-25 11:48 amWNW 4.1 5.1----30.20- 30.7-----
2024-02-25 11:42 amWNW 1.9 2.9----30.20- 30.9-----
2024-02-25 11:36 am W 2.9 4.1----30.21- 30.6-----
2024-02-25 11:30 am W 2.9 5.1----30.21- 30.4-----
2024-02-25 11:24 amWNW 2.9 5.1----30.21- 30.2-----
2024-02-25 11:18 amWNW 2.9 4.1----30.21-------
2024-02-25 11:12 am W 2.9 5.1----30.21-------
2024-02-25 11:06 amWNW 2.9 4.1----30.21-------
2024-02-25 11:00 am NW 2.9 5.1----30.21+0.00------
2024-02-25 10:54 am NW 4.1 6.0----30.22-------
2024-02-25 10:48 amWNW 4.1 5.1----30.22- 29.5-----
2024-02-25 10:42 amWNW 5.1 6.0----30.22- 29.1-----
2024-02-25 10:36 amWNW 5.1 6.0----30.22- 28.9-----
2024-02-25 10:30 amWNW 4.1 5.1------ 29.3-----
2024-02-25 10:24 amWNW 4.1 5.1------ 28.8-----
2024-02-25 10:18 am NW 2.9 7.0----30.22-------
2024-02-25 10:12 amNNW 5.1 8.0----30.22-------
2024-02-25 10:06 am N 7.0 8.0----30.22-------
2024-02-25 10:00 amNNW 5.1 8.9----30.22+0.04------
2024-02-25 09:54 am NW 6.0 8.9----30.23-------
2024-02-25 09:48 am-------30.23- 27.9-----
2024-02-25 09:42 am-------30.23- 28.4-----
2024-02-25 09:36 am-------30.23- 27.9-----
2024-02-25 09:30 amNNW 5.1 7.0------ 28.0-----
2024-02-25 09:24 amNNW 6.0 7.0------ 27.9-----
2024-02-25 09:18 amNNW 6.0 7.0----30.23-------
2024-02-25 09:12 am N 5.1 7.0----30.22-------
2024-02-25 09:06 am N 7.0 8.0----30.22-------
2024-02-25 09:00 amNNW 5.1 8.0----30.22-------
2024-02-25 08:54 amNNW 6.0 7.0----30.22-------